Hourly Data Report for June 12, 2012

HALIFAX STANFIELD INT'L A
NOVA SCOTIA

44°52'48.060" N
63°30'00.050" W
145.40 m
8202250
71395
YHZ

Download Data

Hourly Data (June 2012)
Hourly Data Report for June 12, 2012
TIME
LST
Temp Definition
°C
Dew Point Definition
°C
Rel Hum Definition
%
Precip. Amount Definition
mm

Wind Dir Definition
10's deg

Wind Spd Definition
km/h
Visibility Definition
km
Stn Press Definition
kPa
Hmdx Definition


Wind Chill Definition


Weather Definition


00:00 7.9 7.0 94   16 17 24.1 100.68     Mainly Clear
01:00 7.8 7.3 97   16 13 24.1 100.67     Mainly Clear
02:00 7.5 6.9 96   18 4 24.1 100.68     Mainly Clear
03:00 7.4 7.4 100   14 11 0.6 100.62     Fog
04:00 6.5 6.3 99   17 6 0.8 100.60     Fog
05:00 6.2 6.1 99   16 6 0.8 100.62     Fog
06:00 8.9 8.7 99   18 9 16.1 100.64     Mainly Clear
07:00 12.2 9.9 86   17 11 24.1 100.67     Mainly Clear
08:00 14.9 9.5 70   18 9 24.1 100.66     Mainly Clear
09:00 16.3 10.0 66   15 9 24.1 100.59     Mainly Clear
10:00 18.1 10.7 62   17 7 24.1 100.54     Mainly Clear
11:00 18.1 10.1 60   13 20 24.1 100.50     Mainly Clear
12:00 19.2 11.4 61   19 13 24.1 100.47     Mostly Cloudy
13:00 18.5 10.9 61   17 17 24.1 100.41     Mainly Clear
14:00 18.2 11.2 64   15 19 24.1 100.40     Mainly Clear
15:00 17.4 9.9 61   15 20 24.1 100.38     Mainly Clear
16:00 16.9 9.2 60   17 24 24.1 100.30     Mainly Clear
17:00 16.3 7.4 56   15 24 24.1 100.26     Mainly Clear
18:00 14.5 8.1 65   17 20 24.1 100.27     Mainly Clear
19:00 12.0 8.0 76   18 13 24.1 100.28     Mainly Clear
20:00 9.2 7.8 91   16 11 24.1 100.27     Mainly Clear
21:00 8.1 7.6 97   14 15 3.2 100.30     Fog
22:00 7.3 6.9 97   15 17 6.4 100.28     Fog
23:00 7.0 6.9 99   16 9 0.6 100.26     Fog

Notes on Data Quality.

Legend

  • E = Estimated
  • M = Missing
  • NA = Not Available*
  • [empty] = Indicates an unobserved value
Date modified: